Waarnemingen

Advertentie
Mijn weer
Murcia, Spanje (8430): temperatuur & dauwpunt: 09.11.2019 20:00:00 - 15.11.2019 20:00:00 (CET)Murcia, Spanje (8430): windsnelheid: 09.11.2019 20:00:00 - 15.11.2019 20:00:00 (CET)Murcia, Spanje (8430): windrichting: 09.11.2019 20:00:00 - 15.11.2019 20:00:00 (CET)Murcia, Spanje (8430): luchtdruk: 09.11.2019 20:00:00 - 15.11.2019 20:00:00 (CET)Murcia, Spanje (8430): zicht: 09.11.2019 20:00:00 - 15.11.2019 20:00:00 (CET)Murcia, Spanje (8430): neerslag: 09.11.2019 20:00:00 - 15.11.2019 20:00:00 (CET)
Datum & Tijd tt [°C] td [°C] ff [km/u] ff [kn] dd ppp [hPa] vv [km] rr [mm]
15.11.2019 20:00:00 - - - - - - - -
15.11.2019 19:00:00 11,2 0,0 11 6 W 1006,0 20 -
15.11.2019 18:00:00 12,2 -0,4 13 7 WNW 1005,5 20 0,0
15.11.2019 17:00:00 14,0 -0,1 18 10 NW 1005,1 20 0,0
15.11.2019 16:00:00 15,7 -0,5 11 6 WNW 1004,6 25 -
15.11.2019 15:00:00 15,8 0,0 13 7 WNW 1004,5 20 0,0
15.11.2019 14:00:00 15,4 0,0 21 11 WNW 1004,7 20 0,0
15.11.2019 13:00:00 14,9 0,7 18 10 W 1005,3 25 -
15.11.2019 12:00:00 14,5 2,4 16 9 W 1006,1 20 0,0
15.11.2019 11:00:00 13,6 3,6 9 5 NW 1006,2 20 0,0
15.11.2019 10:00:00 11,7 3,5 4 2 ZW 1006,1 25 -
15.11.2019 09:00:00 8,8 4,4 2 1 NO 1005,9 18 0,0
15.11.2019 08:00:00 7,2 3,4 4 2 W 1004,9 20 0,0
15.11.2019 07:00:00 8,9 3,5 5 3 WZW 1004,4 20 -
15.11.2019 06:00:00 8,3 3,5 5 3 W 1004,1 20 0,0
15.11.2019 05:00:00 7,9 3,5 4 2 WNW 1003,8 20 0,0
15.11.2019 04:00:00 8,8 3,4 5 3 W 1003,6 20 -
15.11.2019 03:00:00 11,3 2,6 4 2 W 1003,5 20 0,0
15.11.2019 02:00:00 11,5 2,2 13 7 ZW 1002,9 20 0,0
15.11.2019 01:00:00 12,0 2,2 5 3 ZW 1002,9 20 -
15.11.2019 00:00:00 13,1 1,1 18 10 WZW 1002,7 20 0,0
14.11.2019 23:00:00 12,8 1,1 15 8 WZW 1002,9 20 0,0
14.11.2019 22:00:00 12,2 1,5 13 7 W 1003,2 20 -
14.11.2019 21:00:00 12,1 2,0 16 9 W 1003,1 20 0,0
14.11.2019 20:00:00 10,9 3,7 11 6 W 1003,2 20 0,0
14.11.2019 19:00:00 11,6 4,1 9 5 W 1003,4 25 -
14.11.2019 18:00:00 10,9 7,9 5 3 WNW 1002,9 20 0,0
14.11.2019 17:00:00 11,4 8,6 8 4 Z 1003,3 20 0,0
14.11.2019 16:00:00 10,7 7,9 8 4 ZZW 1003,4 25 -
14.11.2019 15:00:00 10,5 7,0 21 11 NW 1003,8 9 1,0
14.11.2019 14:00:00 15,1 4,5 34 18 NNW 1002,3 18 0,0
14.11.2019 13:00:00 17,4 4,0 16 9 WZW 1001,0 25 -
14.11.2019 12:00:00 17,4 4,7 9 5 ZZW 1002,9 20 0,0
14.11.2019 11:00:00 17,3 4,6 15 8 W 1004,1 20 0,0
14.11.2019 10:00:00 15,9 5,5 2 1 ZW 1004,2 25 -
14.11.2019 09:00:00 16,4 4,4 11 6 ZZW 1004,3 20 0,0
14.11.2019 08:00:00 15,6 5,8 13 7 WZW 1004,3 20 0,0
14.11.2019 07:00:00 14,6 6,7 16 9 W 1004,6 20 -
14.11.2019 06:00:00 10,7 7,8 5 3 ZZW 1005,6 20 0,0
14.11.2019 05:00:00 10,1 7,5 2 1 Z 1006,2 20 0,0
14.11.2019 04:00:00 11,2 7,9 2 1 WZW 1007,8 20 -
14.11.2019 03:00:00 11,8 7,5 5 3 WNW 1009,4 20 0,0
14.11.2019 02:00:00 12,1 7,8 2 1 WZW 1009,8 20 0,0
14.11.2019 01:00:00 12,8 8,3 8 4 N 1011,0 20 -
14.11.2019 00:00:00 13,3 7,9 2 1 N 1011,5 20 0,0
13.11.2019 23:00:00 16,6 7,8 5 3 W 1012,4 20 0,0
13.11.2019 22:00:00 17,5 8,4 5 3 W 1012,3 20 -
13.11.2019 21:00:00 18,2 8,7 5 3 WNW 1012,4 20 0,0
13.11.2019 20:00:00 17,9 9,0 2 1 N 1011,8 20 0,0
13.11.2019 19:00:00 19,9 9,2 5 3 NW 1011,1 25 -
13.11.2019 18:00:00 21,4 9,0 13 7 WNW 1010,5 20 0,0
13.11.2019 17:00:00 22,5 8,2 16 9 N 1009,4 20 0,0
13.11.2019 16:00:00 23,6 8,1 24 13 WNW 1008,2 50 -
13.11.2019 15:00:00 23,4 7,9 24 13 NW 1008,1 20 0,0
13.11.2019 14:00:00 24,3 8,7 24 13 NW 1008,0 20 0,0
13.11.2019 13:00:00 24,1 8,5 18 10 WNW 1007,5 40 -
13.11.2019 12:00:00 23,0 9,0 11 6 W 1008,0 20 0,0
13.11.2019 11:00:00 20,5 7,8 8 4 W 1008,0 20 0,0
13.11.2019 10:00:00 17,1 7,2 4 2 ZZW 1007,9 30 -
13.11.2019 09:00:00 13,0 7,0 5 3 Z 1007,4 20 0,0
13.11.2019 08:00:00 10,8 5,1 4 2 WNW 1007,4 20 0,0
13.11.2019 07:00:00 11,2 6,1 4 2 W 1007,2 25 -
13.11.2019 06:00:00 12,0 7,1 4 2 WZW 1007,8 20 0,0
13.11.2019 05:00:00 11,7 4,9 4 2 W 1008,2 20 0,0
13.11.2019 04:00:00 11,5 4,2 2 1 NNW 1008,5 20 -
13.11.2019 03:00:00 12,0 3,7 4 2 ZW 1009,1 20 0,0
13.11.2019 02:00:00 12,4 3,6 8 4 WNW 1010,1 20 0,0
13.11.2019 01:00:00 12,0 3,0 4 2 ZZW 1010,7 20 -
13.11.2019 00:00:00 11,7 3,5 4 2 Z 1011,4 20 0,0
12.11.2019 23:00:00 11,4 2,1 4 2 WZW 1012,2 20 0,0
12.11.2019 22:00:00 12,5 2,1 2 1 OZO 1012,7 20 -
12.11.2019 21:00:00 14,2 1,8 5 3 WZW 1012,4 20 0,0
12.11.2019 20:00:00 15,9 1,6 8 4 W 1012,3 20 0,0
12.11.2019 19:00:00 16,7 1,5 16 9 W 1011,8 40 -
12.11.2019 18:00:00 17,5 1,4 16 9 W 1011,5 20 0,0
12.11.2019 17:00:00 18,7 1,7 13 7 NW 1011,4 20 0,0
12.11.2019 16:00:00 19,3 1,7 21 11 WNW 1011,6 40 -
12.11.2019 15:00:00 19,4 1,4 24 13 NW 1011,8 20 0,0
12.11.2019 14:00:00 19,4 1,4 16 9 WNW 1012,3 20 0,0
12.11.2019 13:00:00 18,5 1,9 18 10 NW 1012,8 40 -
12.11.2019 12:00:00 17,2 1,2 22 12 NW 1013,7 20 0,4
12.11.2019 11:00:00 15,6 0,9 22 12 WNW 1014,5 20 0,0
12.11.2019 10:00:00 14,4 1,0 24 13 WNW 1014,0 20 -
12.11.2019 09:00:00 13,2 0,9 18 10 WNW 1013,9 20 0,0
12.11.2019 08:00:00 12,2 0,3 13 7 NW 1013,8 20 0,0
12.11.2019 07:00:00 11,9 0,6 11 6 NW 1013,6 25 -
12.11.2019 06:00:00 11,6 0,9 11 6 W 1013,6 20 0,0
12.11.2019 05:00:00 12,4 1,4 13 7 NW 1013,7 20 0,0
12.11.2019 04:00:00 13,0 1,9 22 12 WNW 1012,8 20 -
12.11.2019 03:00:00 13,5 2,7 22 12 WNW 1013,3 20 0,0
12.11.2019 02:00:00 13,6 4,5 16 9 WNW 1013,4 20 0,0
12.11.2019 01:00:00 14,4 5,2 18 10 WNW 1013,8 20 -
12.11.2019 00:00:00 14,5 5,3 13 7 NW 1014,3 20 0,0
11.11.2019 23:00:00 15,2 5,9 18 10 NW 1014,3 20 0,0
11.11.2019 22:00:00 15,3 6,3 18 10 NW 1014,3 20 -
11.11.2019 21:00:00 15,8 6,2 15 8 NW 1013,7 20 0,0
11.11.2019 20:00:00 16,1 6,0 9 5 W 1013,4 20 0,0
11.11.2019 19:00:00 16,5 5,7 15 8 NW 1013,0 20 -
11.11.2019 18:00:00 17,1 5,1 18 10 NW 1012,4 20 0,0
11.11.2019 17:00:00 17,8 4,4 22 12 NNW 1012,1 20 0,0
11.11.2019 16:00:00 17,8 4,0 15 8 WNW 1012,1 20 -
11.11.2019 15:00:00 17,4 3,6 24 13 NW 1012,4 20 0,0
11.11.2019 14:00:00 18,0 3,1 16 9 WNW 1012,8 20 0,0
11.11.2019 13:00:00 16,6 2,9 13 7 W 1013,9 20 -
11.11.2019 12:00:00 15,2 2,7 13 7 WZW 1015,1 19 0,0
11.11.2019 11:00:00 14,6 2,5 11 6 WNW 1015,4 20 0,0
11.11.2019 10:00:00 14,0 1,9 16 9 WNW 1015,9 20 -
11.11.2019 09:00:00 12,2 1,5 4 2 ZZO 1016,4 20 0,0
11.11.2019 08:00:00 11,9 0,6 11 6 NNW 1016,0 20 0,0
11.11.2019 07:00:00 11,4 0,8 15 8 WNW 1015,8 20 -
11.11.2019 06:00:00 10,4 0,7 15 8 NW 1015,8 20 0,0
11.11.2019 05:00:00 10,5 0,8 11 6 NW 1016,1 20 0,0
11.11.2019 04:00:00 11,3 1,0 16 9 WNW 1016,4 20 -
11.11.2019 03:00:00 11,6 0,7 24 13 NW 1016,1 20 0,0
11.11.2019 02:00:00 11,7 0,4 18 10 WNW 1016,2 20 0,0
11.11.2019 01:00:00 12,0 1,0 29 16 NW 1015,0 20 -
11.11.2019 00:00:00 12,6 1,9 28 15 WNW 1014,5 20 0,0
10.11.2019 23:00:00 12,9 2,1 29 16 WNW 1014,5 20 0,0
10.11.2019 22:00:00 13,4 2,0 22 12 WNW 1014,8 20 -
10.11.2019 21:00:00 13,8 1,7 15 8 NW 1014,6 20 0,0
10.11.2019 20:00:00 14,5 0,7 13 7 W 1014,5 20 0,0
10.11.2019 19:00:00 15,0 0,8 22 12 WNW 1014,3 20 -
10.11.2019 18:00:00 15,6 0,2 24 13 WNW 1013,9 20 0,0
10.11.2019 17:00:00 16,5 0,2 18 10 WNW 1013,4 20 0,0
10.11.2019 16:00:00 17,1 0,3 29 16 NW 1012,8 20 -
10.11.2019 15:00:00 17,6 -0,7 29 16 NW 1012,8 20 0,0
10.11.2019 14:00:00 17,5 -0,8 24 13 NW 1012,9 20 0,0
10.11.2019 13:00:00 17,3 0,4 22 12 WNW 1013,8 20 -
10.11.2019 12:00:00 16,3 0,8 21 11 NW 1014,8 20 0,0
10.11.2019 11:00:00 15,3 2,1 28 15 WNW 1014,7 20 0,0
10.11.2019 10:00:00 14,8 2,7 28 15 WNW 1015,0 20 -
10.11.2019 09:00:00 13,5 3,3 28 15 NW 1014,3 20 0,0
10.11.2019 08:00:00 13,8 3,5 28 15 WNW 1013,6 20 0,0
10.11.2019 07:00:00 14,4 4,7 21 11 NW 1013,3 20 -
10.11.2019 06:00:00 15,1 6,1 21 11 NW 1013,3 20 0,0
10.11.2019 05:00:00 12,7 8,8 8 4 W 1013,1 20 0,0
10.11.2019 04:00:00 12,1 8,6 5 3 W 1013,3 20 -
10.11.2019 03:00:00 12,7 9,3 5 3 ZW 1013,8 20 0,0
10.11.2019 02:00:00 12,4 9,2 4 2 WZW 1014,2 20 0,0
10.11.2019 01:00:00 11,3 9,2 2 1 Z 1014,8 20 -
10.11.2019 00:00:00 12,2 9,2 9 5 NW 1015,2 20 0,0
09.11.2019 23:00:00 13,0 10,0 4 2 N 1016,0 20 0,6
09.11.2019 22:00:00 14,0 8,4 5 3 ZZW 1016,7 15 -
09.11.2019 21:00:00 15,8 4,2 16 9 NW 1017,2 20 0,0
09.11.2019 20:00:00 15,5 7,0 5 3 WNW 1017,6 20 0,0

tt = temperatuur
td = dauwpunt
ff = windsnelheid
dd = windrichting
ppp = luchtdruk
vv = zicht
rr = neerslag

Weerstations in de omgeving